"2009-01-28 00:00:00",579236,9.47,302.3,4.285,0.539,1.338,98.45838,-4.627,-3.415,24.15,0,109.4,13.62,-3.89,264.3
"2009-01-28 00:00:30",579237,8.92,304,2.991,0.81,1.145,98.44333,-4.666,-3.429,24.24,0,109.4,13.62,-3.93,266.0
"2009-01-28 00:01:00",579238,8.94,307.5,2.768,0.809,1.516,98.43571,-4.685,-3.442,24.16,0,109.4,13.62,-3.95,269.5
"2009-01-28 00:01:30",579239,8.84,309.1,2.969,0.764,1.22,98.43798,-4.679,-3.458,23.96,0,109.3,13.62,-3.94,271.1
"2009-01-28 00:02:00",579240,8.86,309.8,2.719,0.815,1.297,98.42976,-4.7,-3.461,24.15,0,109.4,13.62,-3.96,271.8
"2009-01-28 00:02:30",579241,9.23,308.3,4.485,0.834,1.361,98.42891,-4.702,-3.452,24.02,0,109.4,13.62,-3.97,270.3
"2009-01-28 00:03:00",579242,9.59,307.8,3.723,0.721,1.657,98.4303,-4.699,-3.457,24.13,0,109.4,13.62,-3.96,269.8
"2009-01-28 00:03:30",579243,9.35,308.5,2.574,0.726,1.608,98.43057,-4.698,-3.477,24.17,0,109.4,13.62,-3.96,270.5
"2009-01-28 00:04:00",579244,9.24,308.9,3.082,0.708,1.695,98.43198,-4.695,-3.472,24.11,0,109.4,13.62,-3.96,270.9
"2009-01-28 00:04:30",579245,9.55,309.7,2.712,0.835,1.69,98.43504,-4.687,-3.489,24,0,109.4,13.62,-3.95,271.7
"2009-01-28 00:05:00",579246,10.18,311.6,3.789,0.751,2.127,98.43757,-4.68,-3.461,23.51,0,109.3,13.62,-3.94,273.6
"2009-01-28 00:05:30",579247,10.34,313.8,2.58,0.67,1.967,98.44862,-4.652,-3.466,22.96,0,109.3,13.62,-3.92,275.8
"2009-01-28 00:06:00",579248,10.44,313,3.706,0.806,2.178,98.46136,-4.62,-3.437,22.8,0,109.3,13.63,-3.88,275.0
"2009-01-28 00:06:30",579249,10.03,314.3,3.276,0.941,2.154,98.47043,-4.597,-3.439,22.66,0,109.3,13.63,-3.86,276.3
"2009-01-28 00:07:00",579250,9.46,310.7,2.686,0.81,2.059,98.46986,-4.598,-3.429,23.27,0,109.3,13.63,-3.86,272.7
"2009-01-28 00:07:30",579251,9.34,313.2,2.811,0.735,1.847,98.45428,-4.638,-3.44,24.22,0,109.3,13.63,-3.90,275.2
"2009-01-28 00:08:00",579252,9.14,313.4,2.901,0.797,1.957,98.437,-4.682,-3.424,24.47,0,109.3,13.63,-3.95,275.4
"2009-01-28 00:08:30",579253,9.67,312.1,2.926,0.987,1.859,98.43643,-4.683,-3.444,24.46,0,109.3,13.63,-3.95,274.1
"2009-01-28 00:09:00",579254,9.71,313.4,2.209,0.911,1.979,98.43643,-4.683,-3.464,23.98,0,109.3,13.63,-3.95,275.4
"2009-01-28 00:09:30",579255,9.82,314.5,3.632,0.645,2.009,98.43275,-4.693,-3.458,23.89,0,109.3,13.63,-3.96,276.5
"2009-01-28 00:10:00",579256,10.29,313.3,4.053,0.682,2.045,98.42454,-4.714,-3.464,23.67,0,109.3,13.63,-3.98,275.3
"2009-01-28 00:10:30",579257,9.89,313.1,4.321,0.668,2.096,98.41689,-4.733,-3.485,23.52,0,109.3,13.63,-4.00,275.1
"2009-01-28 00:11:00",579258,10.13,311.4,4.178,0.837,2.192,98.40612,-4.76,-3.499,23.66,0,109.3,13.63,-4.03,273.4
"2009-01-28 00:11:30",579259,10.09,312.6,3.287,0.773,2.003,98.40412,-4.766,-3.509,23.43,0,109.3,13.63,-4.03,274.6
"2009-01-28 00:12:00",579260,9.61,309.8,4.427,0.739,2.064,98.40662,-4.759,-3.503,23.8,0,109.3,13.64,-4.02,271.8
"2009-01-28 00:12:30",579261,9.32,306.4,2.586,0.735,1.995,98.40176,-4.772,-3.533,24.42,0,109.3,13.64,-4.04,268.4
"2009-01-28 00:13:00",579262,9.42,309.4,3.544,0.836,2.114,98.39548,-4.788,-3.543,24.27,0,109.3,13.64,-4.05,271.4
"2009-01-28 00:13:30",579263,9.66,310.2,4.078,0.609,2.055,98.39796,-4.781,-3.552,23.91,0,109.3,13.64,-4.05,272.2
"2009-01-28 00:14:00",579264,9.11,310,3.484,0.82,1.788,98.39564,-4.787,-3.536,24.33,0,109.3,13.64,-4.05,272.0
"2009-01-28 00:14:30",579265,8.86,306.8,2.582,0.752,1.575,98.38991,-4.802,-3.579,25.17,0,109.3,13.64,-4.07,268.8
"2009-01-28 00:15:00",579266,9.4,304.5,3.288,0.756,1.817,98.38625,-4.811,-3.583,25.41,0,109.3,13.64,-4.08,266.5
"2009-01-28 00:15:30",579267,9.47,304.5,3.366,0.606,1.501,98.3684,-4.856,-3.584,25.81,0,109.3,13.64,-4.12,266.5
"2009-01-28 00:16:00",579268,9.85,304.4,3.201,0.736,1.586,98.35452,-4.892,-3.61,26.1,0,109.3,13.64,-4.16,266.4
"2009-01-28 00:16:30",579269,9.99,303.5,3.843,0.637,1.626,98.35307,-4.895,-3.643,25.87,0,109.3,13.64,-4.16,265.5
"2009-01-28 00:17:00",579270,9.69,304.9,2.09,0.817,1.616,98.33321,-4.946,-3.675,25.87,0,109.3,13.64,-4.21,266.9
"2009-01-28 00:17:30",579271,9.86,303.5,3.752,0.591,1.597,98.3272,-4.961,-3.692,26.04,0,109.3,13.64,-4.23,265.5
"2009-01-28 00:18:00",579272,10.01,305.7,3.156,0.763,1.8,98.32804,-4.959,-3.686,25.77,0,109.3,13.64,-4.22,267.7
"2009-01-28 00:18:30",579273,10.19,305.7,3.622,0.714,1.949,98.32971,-4.955,-3.694,24.75,0,109.3,13.64,-4.22,267.7
"2009-01-28 00:19:00",579274,10.01,306,2.687,0.736,1.921,98.32944,-4.956,-3.718,24.73,0,109.3,13.64,-4.22,268.0
"2009-01-28 00:19:30",579275,10,304.5,3.106,0.71,1.796,98.32944,-4.956,-3.728,24.91,0,109.3,13.64,-4.22,266.5
"2009-01-28 00:20:00",579276,10.02,304.3,3.761,0.745,1.787,98.32997,-4.954,-3.722,25.72,0,109.3,13.64,-4.22,266.3
"2009-01-28 00:20:30",579277,10.58,310.9,3.095,0.872,2.277,98.32967,-4.955,-3.758,24.5,0,109.3,13.64,-4.22,272.9
"2009-01-28 00:21:00",579278,10.4,313.5,3.303,0.841,2.424,98.3356,-4.94,-3.728,22.72,0,109.3,13.65,-4.21,275.5
"2009-01-28 00:21:30",579279,10.48,312.7,3.623,0.787,2.342,98.36195,-4.873,-3.702,22.53,0,109.3,13.65,-4.14,274.7
"2009-01-28 00:22:00",579280,10.62,313.2,2.774,0.832,2.344,98.36818,-4.857,-3.672,22.15,0,109.3,13.65,-4.12,275.2
"2009-01-28 00:22:30",579281,10.67,312.3,3.353,0.865,2.426,98.38547,-4.813,-3.666,21.93,0,109.2,13.66,-4.08,274.3
"2009-01-28 00:23:00",579282,11.87,315.8,3.395,0.768,2.906,98.40189,-4.771,-3.626,20.84,0,109.3,13.66,-4.04,277.8
"2009-01-28 00:23:30",579283,11.14,314.8,3.194,0.826,2.779,98.42485,-4.713,-3.609,20.06,0,109.2,13.66,-3.98,276.8
"2009-01-28 00:24:00",579284,9.79,313.1,3.521,0.718,2.68,98.43591,-4.685,-3.538,20.44,0,109.2,13.66,-3.95,275.1
"2009-01-28 00:24:30",579285,9.66,313.6,3.555,0.772,2.609,98.44383,-4.664,-3.513,21.07,0,109.2,13.66,-3.93,275.6
"2009-01-28 00:25:00",579286,9.57,312.4,3.548,0.753,2.838,98.45914,-4.625,-3.503,20.95,0,109.2,13.66,-3.89,274.4
"2009-01-28 00:25:30",579287,10.08,310.5,3.394,0.61,2.594,98.4699,-4.598,-3.477,20.81,0,109.2,13.66,-3.86,272.5
"2009-01-28 00:26:00",579288,10.09,311.6,3.343,0.835,2.39,98.47018,-4.597,-3.452,20.66,0,109.2,13.66,-3.86,273.6
"2009-01-28 00:26:30",579289,10.22,310.9,3.213,0.742,2.354,98.47074,-4.596,-3.436,20.4,0,109.2,13.67,-3.86,272.9
"2009-01-28 00:27:00",579290,10.12,311.7,2.792,0.762,2.422,98.48232,-4.566,-3.409,20.36,0,109.2,13.66,-3.83,273.7
"2009-01-28 00:27:30",579291,10.04,309,3.266,0.631,2.33,98.49194,-4.542,-3.382,20.5,0,109.2,13.67,-3.81,271.0
"2009-01-28 00:28:00",579292,9.79,310.3,2.521,0.821,2.272,98.50828,-4.5,-3.363,20.54,0,109.2,13.67,-3.76,272.3
"2009-01-28 00:28:30",579293,9.66,309,3.225,0.811,2.289,98.52037,-4.47,-3.378,20.61,0,109.2,13.67,-3.73,271.0
"2009-01-28 00:29:00",579294,10.45,314.7,4,0.771,2.481,98.52512,-4.457,-3.35,20.27,0,109.2,13.67,-3.72,276.7
"2009-01-28 00:29:30",579295,10.81,316.2,2.931,0.712,2.508,98.5282,-4.45,-3.322,19.67,0,109.2,13.67,-3.71,278.2
"2009-01-28 00:30:00",579296,10.19,312.3,2.547,0.711,2.347,98.53384,-4.435,-3.314,19.77,0,109.2,13.67,-3.70,274.3
"2009-01-28 00:30:30",579297,10.53,312.5,3.125,0.757,2.521,98.53669,-4.428,-3.298,20.04,0,109.2,13.67,-3.69,274.5
"2009-01-28 00:31:00",579298,10.52,310.2,3.87,0.612,2.545,98.53381,-4.435,-3.29,20.28,0,109.2,13.67,-3.70,272.2
"2009-01-28 00:31:30",579299,10.5,311.5,2.188,0.719,2.138,98.53154,-4.441,-3.296,20.66,0,109.2,13.67,-3.70,273.5
"2009-01-28 00:32:00",579300,10.81,308.6,2.675,0.788,2.193,98.52702,-4.453,-3.29,20.84,0,109.2,13.67,-3.72,270.6
"2009-01-28 00:32:30",579301,11.05,307.2,3.056,0.71,2.428,98.51081,-4.494,-3.297,20.53,0,109.2,13.67,-3.76,269.2
"2009-01-28 00:33:00",579302,10.9,308.9,3.641,0.78,2.69,98.50119,-4.518,-3.313,20.2,0,109.2,13.67,-3.78,270.9
"2009-01-28 00:33:30",579303,10.85,309.8,3.828,0.559,2.549,98.50229,-4.516,-3.302,20.01,0,109.2,13.66,-3.78,271.8
"2009-01-28 00:34:00",579304,10.3,310.4,3.211,0.791,2.393,98.502,-4.516,-3.317,19.9,0,109.2,13.67,-3.78,272.4
"2009-01-28 00:34:30",579305,9.86,309.9,2.317,0.799,2.418,98.5034,-4.513,-3.312,19.61,0,109.2,13.67,-3.78,271.9
"2009-01-28 00:35:00",579306,9.95,312.4,3.53,0.706,2.571,98.50313,-4.513,-3.319,19.25,0,109.2,13.67,-3.78,274.4
"2009-01-28 00:35:30",579307,10.55,310.7,2.833,0.71,2.333,98.50426,-4.511,-3.304,19.18,0,109.2,13.67,-3.77,272.7
"2009-01-28 00:36:00",579308,10.23,310,3.447,0.752,2.553,98.50453,-4.51,-3.297,19.09,0,109.2,13.67,-3.77,272.0
"2009-01-28 00:36:30",579309,10.35,309.1,3.282,0.708,2.505,98.50623,-4.506,-3.318,19,0,109.2,13.67,-3.77,271.1
"2009-01-28 00:37:00",579310,10.8,310.3,2.947,0.788,2.398,98.50453,-4.51,-3.3,18.88,0,109.2,13.67,-3.77,272.3
"2009-01-28 00:37:30",579311,11.08,307.3,2.794,0.689,2.051,98.5034,-4.513,-3.298,18.96,0,109.2,13.67,-3.78,269.3
"2009-01-28 00:38:00",579312,11.28,306,3.103,0.805,2.122,98.50113,-4.519,-3.315,19.34,0,109.2,13.68,-3.78,268.0
"2009-01-28 00:38:30",579313,11.04,306.8,3.576,0.752,2.357,98.48498,-4.56,-3.343,18.95,0,109.2,13.68,-3.82,268.8
"2009-01-28 00:39:00",579314,11.34,305.1,2.712,0.734,2.273,98.47166,-4.594,-3.355,18.98,0,109.2,13.68,-3.86,267.1
"2009-01-28 00:39:30",579315,11.44,307.1,2.361,0.767,2.335,98.46938,-4.599,-3.369,19.01,0,109.2,13.68,-3.86,269.1
"2009-01-28 00:40:00",579316,11.5,305.2,3.358,0.72,2.336,98.46938,-4.599,-3.371,18.63,0,109.2,13.68,-3.86,267.2
"2009-01-28 00:40:30",579317,10.95,306.5,2.896,0.777,2.535,98.4691,-4.6,-3.382,18.23,0,109.2,13.68,-3.86,268.5
"2009-01-28 00:41:00",579318,10.87,304.8,3.686,0.759,2.688,98.46938,-4.599,-3.393,18.08,0,109.2,13.68,-3.86,266.8
"2009-01-28 00:41:30",579319,10.62,305.6,2.521,0.757,2.663,98.46938,-4.599,-3.392,18.01,0,109.2,13.68,-3.86,267.6
"2009-01-28 00:42:00",579320,11.08,304.3,2.641,0.822,2.325,98.46938,-4.599,-3.383,17.96,0,109.2,13.68,-3.86,266.3
"2009-01-28 00:42:30",579321,11.07,305.7,2.641,0.82,2.555,98.46825,-4.602,-3.396,18.07,0,109.2,13.69,-3.87,267.7
"2009-01-28 00:43:00",579322,10.68,307.6,2.217,0.886,2.6,98.46938,-4.599,-3.388,17.75,0,109.2,13.69,-3.86,269.6
"2009-01-28 00:43:30",579323,11.28,307.6,3.871,0.455,2.524,98.46938,-4.599,-3.389,17.6,0,109.2,13.69,-3.86,269.6
"2009-01-28 00:44:00",579324,11.23,307.5,3.242,0.685,2.509,98.46938,-4.599,-3.363,17.57,0,109.2,13.69,-3.86,269.5
"2009-01-28 00:44:30",579325,11.12,303.5,2.566,0.711,2.091,98.46938,-4.599,-3.382,17.83,0,109.2,13.69,-3.86,265.5
"2009-01-28 00:45:00",579326,11.04,303.1,2.425,0.834,2.153,98.45804,-4.628,-3.397,18.12,0,109.2,13.69,-3.89,265.1
"2009-01-28 00:45:30",579327,11.12,303.5,2.811,0.65,2.026,98.43905,-4.677,-3.424,18.28,0,109.2,13.69,-3.94,265.5
"2009-01-28 00:46:00",579328,10.97,304,3.086,0.73,2.054,98.43082,-4.698,-3.432,18.35,0,109.2,13.69,-3.96,266.0
"2009-01-28 00:46:30",579329,11.14,304.8,3.121,0.725,2.227,98.41608,-4.735,-3.463,18.2,0,109.2,13.69,-4.00,266.8
"2009-01-28 00:47:00",579330,11.35,306.5,2.788,0.628,2.422,98.40752,-4.757,-3.479,18.08,0,109.2,13.69,-4.02,268.5
"2009-01-28 00:47:30",579331,11.34,306.2,2.702,0.619,2.225,98.40833,-4.755,-3.494,18.07,0,109.2,13.69,-4.02,268.2
"2009-01-28 00:48:00",579332,11.31,305.8,2.553,0.717,2.051,98.40997,-4.751,-3.51,18.12,0,109.2,13.69,-4.02,267.8
"2009-01-28 00:48:30",579333,11.22,304.9,3.291,0.629,2.169,98.3938,-4.792,-3.52,18.22,0,109.2,13.69,-4.06,266.9
"2009-01-28 00:49:00",579334,11.07,303.9,2.854,0.736,2.275,98.38356,-4.818,-3.54,18.24,0,109.2,13.69,-4.08,265.9
"2009-01-28 00:49:30",579335,11.12,305.3,1.866,0.623,2.26,98.38184,-4.822,-3.587,18.24,0,109.2,13.69,-4.09,267.3
"2009-01-28 00:50:00",579336,10.91,304,2.934,0.707,2.314,98.38352,-4.818,-3.55,18.13,0,109.2,13.69,-4.08,266.0
"2009-01-28 00:50:30",579337,11.07,304.4,3.163,0.628,2.535,98.38407,-4.817,-3.57,18.05,0,109.2,13.69,-4.08,266.4
"2009-01-28 00:51:00",579338,11,303.7,2.995,0.737,2.593,98.39087,-4.799,-3.58,17.81,0,109.2,13.69,-4.06,265.7
"2009-01-28 00:51:30",579339,11.02,301.2,3.426,0.552,2.251,98.39624,-4.786,-3.558,17.89,0,109.2,13.69,-4.05,263.2
"2009-01-28 00:52:00",579340,10.98,301.2,1.857,0.808,2.206,98.39114,-4.799,-3.571,17.97,0,109.2,13.69,-4.06,263.2
"2009-01-28 00:52:30",579341,11.15,301.5,3.169,0.748,2.246,98.38631,-4.811,-3.583,17.91,0,109.2,13.69,-4.08,263.5
"2009-01-28 00:53:00",579342,11.17,303,3.469,0.623,2.452,98.38491,-4.814,-3.58,17.74,0,109.2,13.69,-4.08,265.0
"2009-01-28 00:53:30",579343,11.08,304.7,3.362,0.491,2.428,98.38548,-4.813,-3.565,17.64,0,109.1,13.69,-4.08,266.7
"2009-01-28 00:54:00",579344,10.96,304.2,3.24,0.882,2.311,98.4002,-4.775,-3.568,17.51,0,109.2,13.69,-4.04,266.2
"2009-01-28 00:54:30",579345,11.34,301.8,2.66,0.72,2.01,98.39766,-4.782,-3.56,17.62,0,109.2,13.69,-4.05,263.8
"2009-01-28 00:55:00",579346,11.31,302.6,3.129,0.66,2.263,98.39111,-4.799,-3.569,17.7,0,109.2,13.7,-4.06,264.6
"2009-01-28 00:55:30",579347,11.58,300.8,2.666,0.683,2.184,98.38966,-4.802,-3.579,17.73,0,109.2,13.7,-4.07,262.8
"2009-01-28 00:56:00",579348,11.49,302.2,2.709,0.825,2.272,98.3905,-4.8,-3.577,17.78,0,109.2,13.7,-4.07,264.2
"2009-01-28 00:56:30",579349,11.36,304.9,2.382,0.8,2.456,98.39104,-4.799,-3.574,17.7,0,109.2,13.7,-4.06,266.9
"2009-01-28 00:57:00",579350,11.08,306.7,3.09,0.87,2.798,98.39552,-4.787,-3.578,17.59,0,109.2,13.7,-4.05,268.7
"2009-01-28 00:57:30",579351,10.95,308.8,3.056,0.728,2.72,98.41679,-4.733,-3.561,17.37,0,109.1,13.7,-4.00,270.8
"2009-01-28 00:58:00",579352,11.02,307.5,3.151,0.84,2.739,98.42955,-4.701,-3.526,17.24,0,109.2,13.7,-3.97,269.5
"2009-01-28 00:58:30",579353,10.73,308.8,2.864,0.731,2.704,98.44885,-4.652,-3.521,17.12,0,109.2,13.7,-3.92,270.8
"2009-01-28 00:59:00",579354,10.78,307.7,2.587,0.754,2.724,98.46105,-4.621,-3.482,17.01,0,109.2,13.7,-3.88,269.7
"2009-01-28 00:59:30",579355,11.32,304.6,2.833,0.619,2.362,98.46359,-4.614,-3.463,16.98,0,109.2,13.7,-3.88,266.6
"2009-01-28 01:00:00",579356,11.29,305.9,3.307,0.642,2.486,98.47238,-4.592,-3.435,16.97,0,109.2,13.7,-3.86,267.9
"2009-01-28 01:00:30",579357,11.21,310.7,2.672,0.725,2.69,98.48231,-4.566,-3.423,16.9,0,109.2,13.7,-3.83,272.7
"2009-01-28 01:01:00",579358,11.33,311.7,2.581,0.641,2.658,98.49563,-4.533,-3.41,16.84,0,109.2,13.7,-3.80,273.7
"2009-01-28 01:01:30",579359,11.24,309.2,3.714,0.6,2.707,98.49619,-4.531,-3.384,16.78,0,109.2,13.7,-3.80,271.2
"2009-01-28 01:02:00",579360,10.88,310.3,3.046,0.695,2.665,98.50243,-4.515,-3.342,16.67,0,109.2,13.7,-3.78,272.3
"2009-01-28 01:02:30",579361,11.12,311.3,2.946,0.764,2.556,98.51462,-4.484,-3.354,16.6,0,109.2,13.7,-3.75,273.3
"2009-01-28 01:03:00",579362,11.41,310.8,2.748,0.746,2.682,98.52593,-4.455,-3.331,16.62,0,109.2,13.7,-3.72,272.8
"2009-01-28 01:03:30",579363,11.1,311.5,2.469,0.717,2.73,98.53133,-4.442,-3.3,16.55,0,109.2,13.7,-3.71,273.5
"2009-01-28 01:04:00",579364,10.97,308.6,4.272,0.694,2.607,98.53216,-4.439,-3.299,16.5,0,109.2,13.7,-3.70,270.6
"2009-01-28 01:04:30",579365,11.22,306.3,2.621,0.804,2.426,98.53356,-4.436,-3.285,16.52,0,109.2,13.7,-3.70,268.3
"2009-01-28 01:05:00",579366,11.49,306.9,2.756,0.73,2.585,98.53383,-4.435,-3.286,16.52,0,109.2,13.7,-3.70,268.9
"2009-01-28 01:05:30",579367,11.88,307.7,3.16,0.687,2.565,98.5208,-4.468,-3.285,16.56,0,109.2,13.7,-3.73,269.7
"2009-01-28 01:06:00",579368,11.97,307.8,4.08,0.579,2.62,98.51878,-4.474,-3.286,16.65,0,109.2,13.7,-3.74,269.8
"2009-01-28 01:06:30",579369,11.93,308.9,4.01,0.542,2.724,98.51766,-4.476,-3.301,16.68,0,109.2,13.7,-3.74,270.9
"2009-01-28 01:07:00",579370,12.14,309.8,3.466,0.635,2.768,98.51427,-4.485,-3.283,16.7,0,109.2,13.7,-3.75,271.8
"2009-01-28 01:07:30",579371,12.47,309.3,1.617,0.705,2.563,98.51112,-4.493,-3.297,16.71,0,109.2,13.7,-3.76,271.3
"2009-01-28 01:08:00",579372,12.3,309.5,3.547,0.653,2.702,98.50404,-4.511,-3.299,16.7,0,109.2,13.7,-3.77,271.5
"2009-01-28 01:08:30",579373,12,312.4,3.281,0.701,2.853,98.50261,-4.515,-3.298,16.64,0,109.2,13.7,-3.78,274.4
"2009-01-28 01:09:00",579374,11.73,313.3,3.713,0.532,3.16,98.50289,-4.514,-3.297,16.54,0,109.2,13.7,-3.78,275.3
"2009-01-28 01:09:30",579375,11.56,314.1,2.08,0.718,2.947,98.50686,-4.504,-3.288,16.46,0,109.1,13.7,-3.77,276.1
"2009-01-28 01:10:00",579376,11.87,312.6,3.525,0.685,2.894,98.51424,-4.485,-3.284,16.42,0,109.2,13.7,-3.75,274.6
"2009-01-28 01:10:30",579377,11.87,311.7,3.241,0.827,2.911,98.51678,-4.479,-3.29,16.43,0,109.2,13.71,-3.74,273.7
"2009-01-28 01:11:00",579378,11.88,313.1,3.21,0.747,3.013,98.51848,-4.474,-3.291,16.41,0,109.2,13.71,-3.74,275.1
"2009-01-28 01:11:30",579379,11.76,312.3,2.629,0.625,2.797,98.51877,-4.474,-3.278,16.42,0,109.1,13.71,-3.74,274.3
"2009-01-28 01:12:00",579380,11.89,312.5,3.066,0.747,2.874,98.51933,-4.472,-3.272,16.38,0,109.2,13.71,-3.74,274.5
"2009-01-28 01:12:30",579381,12.02,312,3.625,0.642,2.801,98.51962,-4.471,-3.278,16.41,0,109.2,13.71,-3.74,274.0
"2009-01-28 01:13:00",579382,12.06,312,3.382,0.708,3.031,98.51905,-4.473,-3.258,16.4,0,109.2,13.71,-3.74,274.0
"2009-01-28 01:13:30",579383,12.32,312.2,3.158,0.511,3.045,98.52047,-4.469,-3.268,16.34,0,109.2,13.71,-3.73,274.2
"2009-01-28 01:14:00",579384,12.61,312.1,3.552,0.668,2.806,98.52557,-4.456,-3.251,16.33,0,109.2,13.71,-3.72,274.1
"2009-01-28 01:14:30",579385,11.96,312.8,3.648,0.648,2.929,98.52614,-4.455,-3.262,16.37,0,109.2,13.71,-3.72,274.8
"2009-01-28 01:15:00",579386,11.93,314.9,2.374,0.836,3.098,98.53152,-4.441,-3.251,16.37,0,109.2,13.71,-3.70,276.9
"2009-01-28 01:15:30",579387,11.88,314,3.307,0.527,3.046,98.53691,-4.427,-3.267,16.33,0,109.2,13.71,-3.69,276.0
"2009-01-28 01:16:00",579388,11.88,313.5,3.841,0.597,3.104,98.53691,-4.427,-3.23,16.38,0,109.2,13.71,-3.69,275.5
"2009-01-28 01:16:30",579389,11.72,312.4,2.759,0.668,3.046,98.53691,-4.427,-3.234,16.29,0,109.2,13.71,-3.69,274.4
"2009-01-28 01:17:00",579390,11.69,311.3,3.236,0.623,3.217,98.53691,-4.427,-3.218,16.2,0,109.2,13.71,-3.69,273.3
"2009-01-28 01:17:30",579391,11.34,312.9,3.573,0.649,2.968,98.53748,-4.426,-3.226,16.15,0,109.1,13.71,-3.69,274.9
"2009-01-28 01:18:00",579392,11.59,311.2,3.799,0.524,3.007,98.53805,-4.424,-3.195,16.18,0,109.2,13.71,-3.69,273.2
"2009-01-28 01:18:30",579393,11.69,307.7,4.165,0.606,2.957,98.54003,-4.419,-3.208,16.21,0,109.2,13.71,-3.68,269.7
"2009-01-28 01:19:00",579394,11.6,310,2.793,0.722,2.942,98.54031,-4.419,-3.207,16.21,0,109.2,13.71,-3.68,272.0
"2009-01-28 01:19:30",579395,11.8,307.7,3.93,0.426,3.002,98.54259,-4.413,-3.197,16.17,0,109.2,13.71,-3.68,269.7
"2009-01-28 01:20:00",579396,11.57,310.4,2.883,0.759,2.892,98.54655,-4.403,-3.183,16.16,0,109.2,13.71,-3.67,272.4
"2009-01-28 01:20:30",579397,11.9,310.8,3.809,0.549,2.8,98.55138,-4.391,-3.194,16.12,0,109.2,13.71,-3.65,272.8
"2009-01-28 01:21:00",579398,12.16,310.5,3.562,0.582,2.972,98.55308,-4.386,-3.182,16.15,0,109.2,13.71,-3.65,272.5
"2009-01-28 01:21:30",579399,12.31,312.2,3.237,0.507,3.003,98.55563,-4.38,-3.175,16.16,0,109.2,13.71,-3.64,274.2
"2009-01-28 01:22:00",579400,12.45,310.7,3.962,0.449,3.054,98.56953,-4.344,-3.153,16.13,0,109.2,13.7,-3.61,272.7
"2009-01-28 01:22:30",579401,12.13,310.2,3.353,0.633,3.111,98.57066,-4.341,-3.161,16.11,0,109.2,13.71,-3.60,272.2
"2009-01-28 01:23:00",579402,11.93,312.4,3.197,0.848,3.085,98.57094,-4.341,-3.152,16.11,0,109.2,13.71,-3.60,274.4
"2009-01-28 01:23:30",579403,12.52,310.9,3.336,0.729,2.899,98.57094,-4.341,-3.157,16.15,0,109.2,13.7,-3.60,272.9
"2009-01-28 01:24:00",579404,12.08,312.2,2.924,0.795,2.923,98.57094,-4.341,-3.142,16.25,0,109.2,13.71,-3.60,274.2
"2009-01-28 01:24:30",579405,12.14,312.2,2.952,0.69,2.918,98.57094,-4.341,-3.161,16.32,0,109.2,13.71,-3.60,274.2
"2009-01-28 01:25:00",579406,12.26,309.4,4.289,0.564,3.334,98.57094,-4.341,-3.142,16.26,0,109.2,13.71,-3.60,271.4
"2009-01-28 01:25:30",579407,12.17,309.5,2.659,0.614,3.018,98.57094,-4.341,-3.153,16.17,0,109.1,13.71,-3.60,271.5
"2009-01-28 01:26:00",579408,11.78,309.9,3.942,0.682,3.119,98.57094,-4.341,-3.132,16.13,0,109.2,13.71,-3.60,271.9
"2009-01-28 01:26:30",579409,11.79,312.2,3.362,0.713,3.011,98.57094,-4.341,-3.135,16.09,0,109.2,13.71,-3.60,274.2
"2009-01-28 01:27:00",579410,11.45,311.2,3.364,0.701,3.2,98.57292,-4.336,-3.132,16.1,0,109.2,13.71,-3.60,273.2
"2009-01-28 01:27:30",579411,11.3,309.7,3.492,0.629,3.074,98.57434,-4.332,-3.126,16.08,0,109.2,13.71,-3.60,271.7
"2009-01-28 01:28:00",579412,11.46,310.6,4.126,0.5,3.122,98.57917,-4.32,-3.113,16.01,0,109.2,13.72,-3.58,272.6
"2009-01-28 01:28:30",579413,10.99,309.5,3.743,0.564,3.027,98.58086,-4.315,-3.099,15.97,0,109.2,13.72,-3.58,271.5
"2009-01-28 01:29:00",579414,10.85,307.7,3.267,0.803,2.905,98.58313,-4.31,-3.112,16.02,0,109.2,13.71,-3.57,269.7
"2009-01-28 01:29:30",579415,11.03,309.7,2.944,0.766,2.818,98.58285,-4.31,-3.111,16.05,0,109.2,13.71,-3.57,271.7
"2009-01-28 01:30:00",579416,11.14,311.3,3.842,0.666,2.787,98.58653,-4.301,-3.108,16,0,109.2,13.71,-3.56,273.3
"2009-01-28 01:30:30",579417,11.2,310.3,4.254,0.552,2.851,98.58878,-4.295,-3.085,15.96,0,109.2,13.71,-3.56,272.3
"2009-01-28 01:31:00",579418,11.5,307.7,4.509,0.481,3.166,98.59475,-4.28,-3.082,15.96,0,109.2,13.72,-3.54,269.7
"2009-01-28 01:31:30",579419,11.11,311.8,3.026,0.657,2.831,98.60326,-4.258,-3.085,15.94,0,109.2,13.71,-3.52,273.8
"2009-01-28 01:32:00",579420,10.68,310,3.518,0.632,2.869,98.6058,-4.252,-3.055,15.93,0,109.2,13.71,-3.51,272.0
"2009-01-28 01:32:30",579421,10.94,309.4,3.247,0.721,2.832,98.6058,-4.252,-3.068,15.88,0,109.2,13.72,-3.51,271.4
"2009-01-28 01:33:00",579422,10.66,310.1,3.264,0.687,2.823,98.6058,-4.252,-3.062,15.88,0,109.2,13.72,-3.51,272.1
"2009-01-28 01:33:30",579423,10.56,312.5,2.641,0.559,2.619,98.60608,-4.251,-3.052,15.89,0,109.2,13.72,-3.51,274.5
"2009-01-28 01:34:00",579424,10.39,308.4,3.521,0.63,2.822,98.60608,-4.251,-3.037,15.9,0,109.2,13.72,-3.51,270.4
"2009-01-28 01:34:30",579425,10.37,308.4,3.996,0.528,2.827,98.60551,-4.253,-3.04,15.9,0,109.2,13.72,-3.52,270.4
"2009-01-28 01:35:00",579426,11.39,311.6,3.894,0.553,2.933,98.60551,-4.253,-3.033,15.85,0,109.2,13.72,-3.52,273.6
"2009-01-28 01:35:30",579427,10.78,312.2,3.193,0.577,2.789,98.60665,-4.25,-3.032,15.85,0,109.2,13.72,-3.51,274.2
"2009-01-28 01:36:00",579428,10.39,310.5,4.125,0.531,2.727,98.60638,-4.25,-3.01,15.92,0,109.2,13.72,-3.51,272.5
"2009-01-28 01:36:30",579429,10.51,308.8,3.932,0.441,2.904,98.60777,-4.247,-3.016,15.93,0,109.2,13.72,-3.51,270.8
"2009-01-28 01:37:00",579430,10.41,310.2,3.56,0.664,2.695,98.60806,-4.246,-3.043,15.88,0,109.2,13.71,-3.51,272.2
"2009-01-28 01:37:30",579431,10.66,308.7,3.218,0.578,2.719,98.61369,-4.232,-3.02,15.86,0,109.1,13.71,-3.49,270.7
"2009-01-28 01:38:00",579432,10.62,307.7,3.187,0.677,2.662,98.61568,-4.227,-3.008,15.84,0,109.2,13.71,-3.49,269.7
"2009-01-28 01:38:30",579433,10.47,307.1,3.374,0.668,2.721,98.62243,-4.21,-3.011,15.84,0,109.2,13.72,-3.47,269.1
"2009-01-28 01:39:00",579434,10.54,307.6,3.989,0.532,2.905,98.62443,-4.205,-3.011,15.84,0,109.2,13.72,-3.47,269.6
"2009-01-28 01:39:30",579435,10.98,308.5,3.81,0.221,2.709,98.62671,-4.199,-2.999,15.82,0,109.1,13.72,-3.46,270.5
"2009-01-28 01:40:00",579436,10.75,307.7,3.787,0.649,2.974,98.6307,-4.189,-2.974,15.78,0,109.2,13.71,-3.45,269.7
"2009-01-28 01:40:30",579437,10.77,307.1,3.441,0.743,2.783,98.64122,-4.162,-2.99,15.71,0,109.2,13.72,-3.42,269.1
"2009-01-28 01:41:00",579438,10.83,307.8,4.038,0.448,3.07,98.64179,-4.16,-2.971,15.66,0,109.2,13.72,-3.42,269.8
"2009-01-28 01:41:30",579439,10.68,310,3.181,0.603,2.879,98.64745,-4.146,-2.932,15.6,0,109.1,13.72,-3.41,272.0
"2009-01-28 01:42:00",579440,10.73,308.8,3.991,0.573,2.796,98.65789,-4.119,-2.942,15.58,0,109.2,13.72,-3.38,270.8
"2009-01-28 01:42:30",579441,10.84,311.1,4.228,0.556,2.963,98.65849,-4.118,-2.909,15.6,0,109.2,13.72,-3.38,273.1
"2009-01-28 01:43:00",579442,10.93,313.1,3.357,0.657,3.074,98.67464,-4.077,-2.921,15.44,0,109.2,13.72,-3.34,275.1
"2009-01-28 01:43:30",579443,11.14,311.7,3.411,0.51,3.054,98.68056,-4.062,-2.904,15.34,0,109.1,13.72,-3.32,273.7
"2009-01-28 01:44:00",579444,10.84,309.3,3.722,0.585,3.023,98.68172,-4.059,-2.861,15.3,0,109.2,13.72,-3.32,271.3
"2009-01-28 01:44:30",579445,11,310.2,4.294,0.537,3.109,98.6939,-4.028,-2.854,15.28,0,109.2,13.72,-3.29,272.2
"2009-01-28 01:45:00",579446,10.86,311.2,3.697,0.559,3.102,98.71095,-3.984,-2.832,15.23,0,109.2,13.72,-3.25,273.2
"2009-01-28 01:45:30",579447,10.72,312.9,3.755,0.358,3.434,98.71487,-3.974,-2.818,15.22,0,109.2,13.72,-3.24,274.9
"2009-01-28 01:46:00",579448,10.75,313.5,3.59,0.648,2.854,98.71487,-3.974,-2.804,15.23,0,109.2,13.72,-3.24,275.5